DLH967 EGNT-EDDF

Flight info

Callsign DLH967
Flight time N/A
Altitude 23000
Route GIRLI P18 GASKO Y250 RIMTO/N0435F370 UY250 MAMUL L603 DOLAS DCT NAVPI DCT NOLRU DCT DIXAT DIXAT1A
Aircraft A320/M-SDE2E3FGIJ1LORWXYZ/HB1

Departure

Time 2026-05-04 06:30
Airport Newcastle International Airport (EGNT)

Arrival

Time N/A
Airport Frankfurt Main Airport (EDDF)
Time Latitude Longitude Altitude Speed Heading
2026-05-04 05:54 55.03661 -1.70711 268 ft 0 kts
2026-05-04 06:20 55.03630 -1.70715 267 ft 2 kts
2026-05-04 06:20 55.03607 -1.70712 267 ft 4 kts 325°
2026-05-04 06:21 55.03593 -1.70550 267 ft 4 kts 264°
2026-05-04 06:21 55.03596 -1.70505 267 ft 4 kts 264°
2026-05-04 06:22 55.03598 -1.70470 267 ft 4 kts 264°
2026-05-04 06:22 55.03600 -1.70426 267 ft 4 kts 265°
2026-05-04 06:25 55.03708 -1.70432 267 ft 7 kts
2026-05-04 06:25 55.03764 -1.70416 267 ft 11 kts 22°
2026-05-04 06:26 55.03781 -1.70326 267 ft 10 kts 91°
2026-05-04 06:26 55.03772 -1.70102 262 ft 24 kts 91°
2026-05-04 06:26 55.03788 -1.69792 259 ft 27 kts 80°
2026-05-04 06:26 55.03844 -1.69470 256 ft 25 kts 65°
2026-05-04 06:27 55.04157 -1.68290 248 ft 26 kts 65°
2026-05-04 06:28 55.04235 -1.67994 247 ft 28 kts 65°
2026-05-04 06:28 55.04301 -1.67746 245 ft 18 kts 65°
2026-05-04 06:28 55.04333 -1.67595 243 ft 10 kts 88°
2026-05-04 06:28 55.04330 -1.67477 242 ft 10 kts 94°
2026-05-04 06:29 55.04301 -1.67380 241 ft 9 kts 150°
2026-05-04 06:29 55.04236 -1.67371 241 ft 10 kts 196°
2026-05-04 06:29 55.04178 -1.67527 244 ft 35 kts 245°
2026-05-04 06:29 55.03961 -1.68344 249 ft 110 kts 245°
2026-05-04 06:30 55.03560 -1.69861 359 ft 154 kts 245°
2026-05-04 06:30 55.03112 -1.71550 1073 ft 154 kts 244°
2026-05-04 06:30 55.02657 -1.73257 1758 ft 161 kts 244°
2026-05-04 06:30 55.02113 -1.75097 2182 ft 180 kts 231°
2026-05-04 06:31 55.01003 -1.76206 2536 ft 200 kts 189°
2026-05-04 06:31 54.99534 -1.76544 2899 ft 226 kts 189°
2026-05-04 06:31 54.97932 -1.77284 3400 ft 251 kts 198°
2026-05-04 06:31 54.96258 -1.78389 4141 ft 262 kts 202°
2026-05-04 06:32 54.94554 -1.79621 5069 ft 268 kts 204°
2026-05-04 06:33 54.81705 -1.87684 11263 ft 299 kts 180°
2026-05-04 06:34 54.79589 -1.87122 11684 ft 321 kts 163°
2026-05-04 06:34 54.77482 -1.85498 12103 ft 338 kts 155°
2026-05-04 06:34 54.75346 -1.83695 12825 ft 344 kts 155°
2026-05-04 06:34 54.73163 -1.82063 13582 ft 347 kts 163°
2026-05-04 06:35 54.70798 -1.81199 14297 ft 349 kts 176°
2026-05-04 06:36 54.53684 -1.85825 18958 ft 369 kts 191°
2026-05-04 06:37 54.51143 -1.86621 19503 ft 373 kts 191°
2026-05-04 06:37 54.48576 -1.87429 20067 ft 377 kts 191°
2026-05-04 06:37 54.46018 -1.88235 20630 ft 381 kts 191°
2026-05-04 06:37 54.43403 -1.89058 21193 ft 384 kts 191°
2026-05-04 06:38 54.40839 -1.89865 21732 ft 388 kts 190°
2026-05-04 06:38 54.38350 -1.90649 22245 ft 392 kts 190°
2026-05-04 06:40 54.19204 -1.91908 25528 ft 412 kts 154°
2026-05-04 06:40 54.16687 -1.89610 25949 ft 414 kts 147°
2026-05-04 06:40 54.14214 -1.87067 26378 ft 417 kts 147°
2026-05-04 06:40 54.11733 -1.84471 26773 ft 420 kts 146°
2026-05-04 06:41 54.09241 -1.81848 27178 ft 423 kts 146°
2026-05-04 06:41 54.06773 -1.79257 27543 ft 426 kts 146°
2026-05-04 06:41 54.04237 -1.76612 27938 ft 429 kts 146°
2026-05-04 06:41 54.01689 -1.73969 28327 ft 432 kts 146°
2026-05-04 06:42 53.99114 -1.71310 28698 ft 435 kts 146°
2026-05-04 06:42 53.96570 -1.68686 29081 ft 437 kts 146°
2026-05-04 06:42 53.93970 -1.66011 29466 ft 439 kts 145°
2026-05-04 06:44 53.76326 -1.47934 31455 ft 453 kts 146°
2026-05-04 06:44 53.73666 -1.45226 31746 ft 454 kts 147°
2026-05-04 06:44 53.70927 -1.42445 32176 ft 451 kts 148°
2026-05-04 06:45 53.68476 -1.39960 32558 ft 449 kts 148°
2026-05-04 06:45 53.65825 -1.37277 32946 ft 448 kts 148°
2026-05-04 06:45 53.63155 -1.34580 33320 ft 447 kts 148°
2026-05-04 06:45 53.60393 -1.32165 33678 ft 447 kts 156°
2026-05-04 06:46 53.57448 -1.30483 34026 ft 448 kts 165°
2026-05-04 06:46 53.54506 -1.29583 34311 ft 448 kts 174°
2026-05-04 06:46 53.51400 -1.29173 34569 ft 448 kts 174°
2026-05-04 06:46 53.48421 -1.28202 34838 ft 447 kts 162°
2026-05-04 06:48 53.36754 -1.00048 36391 ft 445 kts 107°
2026-05-04 06:48 53.35823 -0.95085 36561 ft 447 kts 108°
2026-05-04 06:49 53.34947 -0.90439 36744 ft 448 kts 108°
2026-05-04 06:50 53.28535 -0.56137 37028 ft 444 kts 108°
2026-05-04 06:51 53.26726 -0.46597 37029 ft 444 kts 108°
2026-05-04 06:51 53.24834 -0.36677 37028 ft 445 kts 108°
2026-05-04 06:52 53.22973 -0.26891 37032 ft 445 kts 109°
2026-05-04 06:52 53.21160 -0.17399 37039 ft 444 kts 109°
2026-05-04 06:53 53.19284 -0.07684 37037 ft 444 kts 108°
2026-05-04 06:53 53.17444 0.01819 37012 ft 445 kts 109°
2026-05-04 06:54 53.15538 0.11631 37008 ft 445 kts 109°
2026-05-04 06:54 53.13617 0.21438 37009 ft 445 kts 109°
2026-05-04 06:55 53.11697 0.31165 37009 ft 445 kts 109°
2026-05-04 06:55 53.09761 0.40957 37013 ft 445 kts 109°
2026-05-04 06:57 53.01942 0.79997 36997 ft 447 kts 109°
2026-05-04 06:58 52.99964 0.89777 36998 ft 447 kts 110°
2026-05-04 06:58 52.97973 0.99533 37000 ft 446 kts 110°
2026-05-04 06:59 52.95878 1.09227 36998 ft 446 kts 112°
2026-05-04 06:59 52.93669 1.18823 36997 ft 446 kts 112°
2026-05-04 07:01 52.84852 1.57216 36992 ft 447 kts 113°
2026-05-04 07:02 52.82632 1.66818 36991 ft 447 kts 113°
2026-05-04 07:02 52.80405 1.76406 36993 ft 447 kts 113°
2026-05-04 07:03 52.78170 1.85978 36996 ft 446 kts 113°
2026-05-04 07:03 52.75937 1.95544 36990 ft 446 kts 113°
2026-05-04 07:04 52.73695 2.05086 36975 ft 446 kts 114°
2026-05-04 07:04 52.71436 2.14618 36979 ft 446 kts 114°
2026-05-04 07:05 52.69166 2.24148 36984 ft 447 kts 114°
2026-05-04 07:05 52.66893 2.33670 36988 ft 447 kts 114°
2026-05-04 07:06 52.63475 2.47963 36994 ft 447 kts 114°
2026-05-04 07:07 52.61180 2.57466 36983 ft 447 kts 114°
2026-05-04 07:09 52.51615 2.95199 36986 ft 446 kts 118°
2026-05-04 07:09 52.48892 3.04278 36971 ft 447 kts 119°
2026-05-04 07:10 52.46152 3.13431 36961 ft 448 kts 119°
2026-05-04 07:12 52.35324 3.50242 36956 ft 448 kts 120°
2026-05-04 07:12 52.32590 3.59411 36959 ft 449 kts 120°
2026-05-04 07:13 52.29846 3.68599 36967 ft 450 kts 120°
2026-05-04 07:13 52.27100 3.77781 36972 ft 450 kts 120°
2026-05-04 07:14 52.20182 4.00707 36968 ft 450 kts 121°
2026-05-04 07:15 52.17399 4.09845 36981 ft 450 kts 121°
2026-05-04 07:15 52.14616 4.18978 36978 ft 450 kts 121°
2026-05-04 07:16 52.11843 4.28020 36983 ft 449 kts 121°
2026-05-04 07:16 52.09047 4.37116 36973 ft 449 kts 121°
2026-05-04 07:17 52.06244 4.46201 36974 ft 449 kts 121°
2026-05-04 07:17 52.03439 4.55266 36976 ft 449 kts 121°
2026-05-04 07:18 52.00620 4.64331 36985 ft 450 kts 121°
2026-05-04 07:18 51.97906 4.73036 36978 ft 450 kts 122°
2026-05-04 07:19 51.95087 4.82041 36983 ft 449 kts 122°
2026-05-04 07:19 51.93007 4.88665 36972 ft 449 kts 122°
2026-05-04 07:20 51.90506 4.96599 36985 ft 448 kts 122°
2026-05-04 07:20 51.87671 5.05565 36994 ft 447 kts 122°
2026-05-04 07:22 51.76971 5.39109 36980 ft 445 kts 123°
2026-05-04 07:23 51.74255 5.47557 36982 ft 446 kts 123°
2026-05-04 07:23 51.71394 5.56434 36985 ft 446 kts 123°
2026-05-04 07:24 51.68755 5.64591 36985 ft 446 kts 123°
2026-05-04 07:24 51.65895 5.73385 36974 ft 446 kts 123°
2026-05-04 07:26 51.54868 6.07008 36987 ft 442 kts 123°
2026-05-04 07:27 51.52128 6.15285 36984 ft 442 kts 124°
2026-05-04 07:27 51.49590 6.23464 36984 ft 446 kts 117°
2026-05-04 07:28 51.47563 6.31739 36966 ft 447 kts 117°
2026-05-04 07:28 51.45356 6.40776 36969 ft 447 kts 117°
2026-05-04 07:29 51.43074 6.50070 36974 ft 448 kts 117°
2026-05-04 07:29 51.41150 6.57846 36971 ft 449 kts 117°
2026-05-04 07:30 51.38885 6.66942 36831 ft 454 kts 117°
2026-05-04 07:30 51.37711 6.71644 36343 ft 454 kts 117°
2026-05-04 07:30 51.36940 6.74733 36035 ft 451 kts 117°
2026-05-04 07:31 51.36173 6.77811 35728 ft 448 kts 117°
2026-05-04 07:31 51.35134 6.81980 35321 ft 445 kts 117°
2026-05-04 07:33 51.27782 7.10232 32373 ft 418 kts 128°
2026-05-04 07:33 51.26054 7.13884 31900 ft 407 kts 139°
2026-05-04 07:33 51.23979 7.16863 31411 ft 397 kts 150°
2026-05-04 07:33 51.22606 7.18306 31137 ft 391 kts 156°
2026-05-04 07:34 51.20209 7.20270 30689 ft 387 kts 159°
2026-05-04 07:34 51.18330 7.21757 30345 ft 386 kts 159°
2026-05-04 07:34 51.16985 7.22823 30098 ft 385 kts 159°
2026-05-04 07:34 51.14598 7.24717 29586 ft 383 kts 159°
2026-05-04 07:35 51.12220 7.26601 29081 ft 380 kts 159°
2026-05-04 07:35 51.09860 7.28482 28576 ft 378 kts 159°
2026-05-04 07:35 51.07866 7.30106 28153 ft 376 kts 158°
2026-05-04 07:35 51.05697 7.31898 27684 ft 374 kts 158°
2026-05-04 07:36 51.03651 7.33597 27277 ft 372 kts 158°
2026-05-04 07:36 51.01365 7.35500 26809 ft 369 kts 158°
2026-05-04 07:38 50.86624 7.47617 23891 ft 350 kts 158°
2026-05-04 07:38 50.84466 7.49381 23458 ft 348 kts 158°
2026-05-04 07:38 50.82324 7.51131 22957 ft 345 kts 158°
2026-05-04 07:38 50.80194 7.52872 22459 ft 343 kts 158°
2026-05-04 07:39 50.78082 7.54597 21982 ft 341 kts 158°
2026-05-04 07:39 50.76027 7.56270 21525 ft 340 kts 158°
2026-05-04 07:39 50.73921 7.57984 21067 ft 338 kts 158°
2026-05-04 07:39 50.71831 7.59684 20611 ft 337 kts 158°
2026-05-04 07:40 50.69977 7.61188 20202 ft 336 kts 158°
2026-05-04 07:40 50.67880 7.62895 19829 ft 333 kts 158°
2026-05-04 07:40 50.65834 7.64557 19461 ft 330 kts 158°
2026-05-04 07:40 50.64022 7.66026 19142 ft 327 kts 158°
2026-05-04 07:41 50.62005 7.67651 18773 ft 324 kts 157°
2026-05-04 07:41 50.60319 7.69009 18477 ft 322 kts 157°
2026-05-04 07:41 50.58332 7.70611 18092 ft 320 kts 157°
2026-05-04 07:41 50.56358 7.72199 17693 ft 318 kts 157°
2026-05-04 07:42 50.54412 7.73763 17300 ft 316 kts 156°
2026-05-04 07:42 50.52518 7.75282 16918 ft 314 kts 156°
2026-05-04 07:42 50.50571 7.76842 16529 ft 313 kts 156°
2026-05-04 07:42 50.48639 7.78390 16147 ft 312 kts 156°
2026-05-04 07:43 50.46705 7.79937 15770 ft 311 kts 156°
2026-05-04 07:43 50.44776 7.81481 15399 ft 310 kts 156°
2026-05-04 07:43 50.42923 7.83219 15026 ft 313 kts 146°
2026-05-04 07:43 50.41217 7.85339 14659 ft 312 kts 145°
2026-05-04 07:44 50.39527 7.87451 14289 ft 310 kts 144°
2026-05-04 07:44 50.37834 7.89559 13929 ft 310 kts 144°
2026-05-04 07:44 50.36145 7.91656 13543 ft 309 kts 144°
2026-05-04 07:44 50.34819 7.93309 13229 ft 309 kts 144°
2026-05-04 07:45 50.33145 7.95406 12833 ft 308 kts 144°
2026-05-04 07:45 50.31463 7.97481 12451 ft 307 kts 145°
2026-05-04 07:45 50.29785 7.99535 12067 ft 306 kts 145°
2026-05-04 07:45 50.28115 8.01581 11685 ft 304 kts 145°
2026-05-04 07:46 50.26488 8.03681 11308 ft 304 kts 138°
2026-05-04 07:46 50.25130 8.06226 10940 ft 305 kts 130°
2026-05-04 07:46 50.23848 8.08853 10572 ft 303 kts 131°
2026-05-04 07:46 50.22570 8.11455 10212 ft 301 kts 131°
2026-05-04 07:47 50.21302 8.14021 10022 ft 296 kts 131°
2026-05-04 07:47 50.20125 8.16407 10029 ft 295 kts 131°
2026-05-04 07:47 50.18887 8.18926 10030 ft 296 kts 131°
2026-05-04 07:49 50.10662 8.37150 10035 ft 303 kts 103°
2026-05-04 07:49 50.10566 8.40439 10035 ft 306 kts 84°
2026-05-04 07:49 50.11127 8.43636 10038 ft 308 kts 70°
2026-05-04 07:50 50.11887 8.46764 10033 ft 309 kts 70°
2026-05-04 07:50 50.12645 8.49899 10030 ft 309 kts 70°
2026-05-04 07:50 50.13386 8.52976 9782 ft 309 kts 70°
2026-05-04 07:50 50.14134 8.56100 9487 ft 307 kts 70°
2026-05-04 07:51 50.14865 8.59168 9204 ft 305 kts 70°
2026-05-04 07:51 50.15587 8.62211 8918 ft 303 kts 70°
2026-05-04 07:51 50.16267 8.65086 8654 ft 302 kts 70°
2026-05-04 07:51 50.16992 8.68146 8372 ft 300 kts 70°
2026-05-04 07:52 50.17715 8.71191 8084 ft 298 kts 70°
2026-05-04 07:52 50.18433 8.74217 7809 ft 297 kts 70°
2026-05-04 07:52 50.19141 8.77199 7418 ft 293 kts 70°
2026-05-04 07:52 50.19847 8.80176 6977 ft 292 kts 70°
2026-05-04 07:53 50.20544 8.83139 6506 ft 290 kts 70°
2026-05-04 07:54 50.21299 8.86672 5971 ft 277 kts 80°